User: anonymous   Login
Location: Ay?beleni
(36.6500°N, 30.3000°E)
Time: 23:37:19
(UTC+00:00)
Language:

OBJECT A - Orbit

View from above orbital plane
View from above orbital plane
View from above satellite
View from above satellite

Ground track
Ground track

The orbit data is extracted from the following two-line orbital elements,

1 40899U 15049A   22222.85345204  .00003670  00000-0  17379-3 0  9996
2 40899  97.4817 226.6244 0014255 169.6604 307.1536 15.19886380381380
Epoch (UTC): 10 August 2022 20:28:58
Eccentricity: 0.0014255
inclination: 97.4817°
perigee height: 496 km
apogee height: 516 km
right ascension of ascending node: 226.6244°
argument of perigee: 169.6604°
revolutions per day: 15.19886380
mean anomaly at epoch: 307.1536°
orbit number at epoch: 38138

The dashed part of the orbit path shows where the satellite is in the earth's shadow,  

DLR